De Kooy, Netherlands

7:00 AM CEST on April 27, 2018 (GMT +0200)
De Kooy Navy

Weather History for EHKD - May, 2014

Change the Weather History Date:

Friday, May 30, 2014

  Actual Average Record
Temperature  
Mean Temperature 53 °F -  
Max Temperature 62 °F 63 °F 75 °F (2011)
Min Temperature 44 °F 52 °F 44 °F (2000)
Degree Days  
Heating Degree Days 12    
Growing Degree Days 3 (Base 50)    
Moisture  
Dew Point 48 °F    
Average Humidity 73    
Maximum Humidity 100    
Minimum Humidity 50    
Precipitation  
Precipitation 0.00 in 0.06 in - ()
Sea Level Pressure  
Sea Level Pressure 30.21 in    
Wind  
Wind Speed 5 mph ()    
Max Wind Speed 13 mph    
Max Gust Speed -    
Visibility 8.5 miles    
Events      
Averages and records for this station are not official NWS values.
T = Trace of Precipitation, MM = Missing Value Source: Averaged Metar Reports

Daily Weather History Graph

Daily Weather History Graph

Search for Another Location

Airport or City:

Astronomy

May. 30, 2014 Rise Set
Actual Time 5:23 AM CEST 9:53 PM CEST
Civil Twilight 4:36 AM CEST 10:41 PM CEST
Nautical Twilight 3:22 AM CEST 11:56 PM CEST
Astronomical Twilight 2:10 AM CEST 1:06 AM CEST
Moon 7:03 AM CEST (5/30) 11:08 PM CEST (5/30)
Length of Visible Light 18h 05m
Length of Day
16h 29m
Waxing Crescent, 3% of the Moon is Illuminated
May 30
Waxing Crescent
Jun 5
First Quarter
Jun 13
Full
Jun 19
Last Quarter
Jun 27
New

Hourly Weather History & Observations

Time (CEST) Temp. Dew Point Humidity Pressure Visibility Wind Dir Wind Speed Gust Speed Precip Events Conditions
12:00 AM 52 °F 44 °F 66% 30.18 in 28 mi East 6.7 mph - -   Partly Cloudy
12:25 AM 51.8 °F 44.6 °F 76% 30.15 in 6.2 mi ESE 6.9 mph - N/A   Mostly Cloudy
12:55 AM 51.8 °F 44.6 °F 76% 30.18 in 6.2 mi SE 4.6 mph - N/A   Mostly Cloudy
1:00 AM 49 °F 44 °F 77% 30.18 in 28 mi SSE 4.5 mph - -   Overcast
1:25 AM 50.0 °F 44.6 °F 82% 30.18 in 6.2 mi SSE 3.5 mph - N/A   Overcast
1:55 AM 51.8 °F 44.6 °F 76% 30.18 in 6.2 mi ESE 1.2 mph - N/A   Overcast
2:00 AM 52 °F 45 °F 68% 30.19 in 28 mi ESE 2.2 mph - -   Partly Cloudy
2:25 AM 51.8 °F 44.6 °F 76% 30.18 in 6.2 mi East 2.3 mph - N/A   Overcast
2:55 AM 51.8 °F 44.6 °F 76% 30.18 in 6.2 mi ESE 1.2 mph - N/A   Overcast
3:00 AM 52 °F 44 °F 66% 30.19 in 28 mi ESE 2.2 mph - -   Overcast
3:25 AM 51.8 °F 44.6 °F 76% 30.18 in 6.2 mi SE 3.5 mph - N/A   Overcast
3:55 AM 51.8 °F 46.4 °F 82% 30.18 in 6.2 mi ESE 2.3 mph - N/A   Overcast
4:00 AM 51 °F 47 °F 81% 30.19 in 28 mi Calm Calm - -   Overcast
4:25 AM 50.0 °F 48.2 °F 94% 30.18 in 6.2 mi Calm Calm - N/A   Overcast
4:55 AM 50.0 °F 46.4 °F 87% 30.18 in 6.2 mi Calm Calm - N/A   Overcast
5:00 AM 49 °F 47 °F 88% 30.20 in 25 mi Calm Calm - -   Scattered Clouds
5:25 AM 48.2 °F 46.4 °F 93% 30.18 in 6.2 mi Calm Calm - N/A   Scattered Clouds
5:55 AM 46.4 °F 46.4 °F 100% 30.18 in 6.2 mi Calm Calm - N/A   Unknown
6:00 AM 46 °F 45 °F 96% 30.20 in 6 mi Calm Calm - -  
6:23 AM 46.4 °F 46.4 °F 100% 30.18 in 6.2 mi SE 1.2 mph - N/A   Unknown
6:25 AM 46.4 °F 46.4 °F 100% 30.18 in 6.2 mi SE 1.2 mph - N/A   Partly Cloudy
6:55 AM 50.0 °F 48.2 °F 94% 30.18 in 6.2 mi NNW 2.3 mph - N/A   Scattered Clouds
7:00 AM 50 °F 49 °F 95% 30.21 in 17 mi NNW 2.2 mph - -  
7:11 AM 51.8 °F 50.0 °F 94% 30.18 in 6.2 mi NNW 1.2 mph - N/A   Unknown
7:25 AM 51.8 °F 50.0 °F 94% 30.21 in 6.2 mi NNW 1.2 mph - N/A   Unknown
7:55 AM 53.6 °F 48.2 °F 82% 30.21 in 6.2 mi NNW 2.3 mph - N/A   Unknown
8:00 AM 54 °F 49 °F 77% 30.22 in 22 mi NNW 2.2 mph - -   Partly Cloudy
8:25 AM 55.4 °F 44.6 °F 67% 30.21 in 6.2 mi NW 1.2 mph - N/A   Partly Cloudy
8:55 AM 57.2 °F 46.4 °F 67% 30.21 in 6.2 mi SSW 2.3 mph - N/A   Unknown
9:00 AM 57 °F 46 °F 58% 30.22 in 19 mi Calm Calm - -  
9:25 AM 57.2 °F 46.4 °F 67% 30.21 in 6.2 mi ENE 2.3 mph - N/A   Mostly Cloudy
9:55 AM 57.2 °F 46.4 °F 67% 30.21 in 6.2 mi East 4.6 mph - N/A   Partly Cloudy
10:00 AM 57 °F 47 °F 61% 30.23 in 22 mi ENE 4.5 mph - -   Scattered Clouds
10:11 AM 57.2 °F 48.2 °F 72% 30.21 in 6.2 mi NE 4.6 mph - N/A   Scattered Clouds
10:18 AM 57.2 °F 46.4 °F 67% 30.21 in 6.2 mi ENE 5.8 mph - N/A   Partly Cloudy
10:25 AM 59.0 °F 46.4 °F 63% 30.21 in 6.2 mi ENE 8.1 mph - N/A   Unknown
10:55 AM 59.0 °F 48.2 °F 67% 30.21 in 6.2 mi ENE 6.9 mph - N/A   Mostly Cloudy
11:00 AM 59 °F 48 °F 57% 30.23 in 19 mi East 6.7 mph - -   Scattered Clouds
11:12 AM 60.8 °F 48.2 °F 63% 30.21 in 6.2 mi ENE 8.1 mph - N/A   Mostly Cloudy
11:25 AM 59.0 °F 50.0 °F 72% 30.21 in 6.2 mi NE 6.9 mph - N/A   Mostly Cloudy
11:29 AM 59.0 °F 48.2 °F 67% 30.21 in 6.2 mi NE 6.9 mph - N/A   Partly Cloudy
11:55 AM 59.0 °F 46.4 °F 63% 30.21 in 6.2 mi NE 6.9 mph - N/A   Unknown
12:00 PM 60 °F 46 °F 50% 30.24 in 17 mi ENE 6.7 mph - -  
12:25 PM 59.0 °F 44.6 °F 59% 30.21 in 6.2 mi NE 6.9 mph - N/A   Unknown
12:55 PM 59.0 °F 48.2 °F 67% 30.21 in 6.2 mi ENE 8.1 mph - N/A   Unknown
1:00 PM 60 °F 48 °F 56% 30.24 in 18 mi ENE 8.9 mph - -  
1:25 PM 60.8 °F 48.2 °F 63% 30.21 in 6.2 mi ENE 9.2 mph - N/A   Unknown
1:55 PM 60.8 °F 48.2 °F 63% 30.24 in 6.2 mi NE 9.2 mph - N/A   Unknown
2:00 PM 61 °F 49 °F 56% 30.25 in 18 mi NE 8.9 mph - -   Partly Cloudy
2:06 PM 60.8 °F 50.0 °F 68% 30.24 in 6.2 mi NE 8.1 mph - N/A   Unknown
2:16 PM 60.8 °F 48.2 °F 63% 30.24 in 6.2 mi NNE 9.2 mph - N/A   Partly Cloudy
2:25 PM 60.8 °F 50.0 °F 68% 30.24 in 6.2 mi NNE 9.2 mph - N/A   Unknown
2:55 PM 62.6 °F 51.8 °F 68% 30.24 in 6.2 mi NE 10.4 mph - N/A   Unknown
3:00 PM 61 °F 51 °F 62% 30.24 in 19 mi NE 11.2 mph - -  
3:25 PM 60.8 °F 53.6 °F 77% 30.24 in 6.2 mi NNE 10.4 mph - N/A   Unknown
3:55 PM 62.6 °F 51.8 °F 68% 30.24 in 6.2 mi NNE 10.4 mph - N/A   Unknown
4:00 PM 61 °F 52 °F 64% 30.24 in 19 mi NNE 11.2 mph - -  
4:25 PM 60.8 °F 51.8 °F 72% 30.21 in 6.2 mi NNE 11.5 mph - N/A   Unknown
4:55 PM 60.8 °F 50.0 °F 68% 30.21 in 6.2 mi NNE 12.7 mph - N/A   Unknown
5:00 PM 61 °F 48 °F 52% 30.24 in 19 mi NNE 11.2 mph - -  
5:25 PM 60.8 °F 50.0 °F 68% 30.21 in 6.2 mi NNE 11.5 mph - N/A   Unknown
5:55 PM 60.8 °F 50.0 °F 68% 30.21 in 6.2 mi NNE 9.2 mph - N/A   Unknown
6:00 PM 61 °F 49 °F 56% 30.23 in 19 mi NNE 8.9 mph - -  
6:25 PM 60.8 °F 46.4 °F 59% 30.21 in 6.2 mi North 8.1 mph - N/A   Partly Cloudy
6:55 PM 60.8 °F 48.2 °F 63% 30.21 in 6.2 mi North 9.2 mph - N/A   Unknown
7:00 PM 60 °F 48 °F 55% 30.24 in 19 mi North 8.9 mph - -  
7:12 PM 59.0 °F 48.2 °F 67% 30.21 in 6.2 mi North 8.1 mph - N/A   Unknown
7:25 PM 59.0 °F 48.2 °F 67% 30.21 in 6.2 mi North 8.1 mph - N/A   Unknown
7:55 PM 59.0 °F 48.2 °F 67% 30.21 in 6.2 mi North 6.9 mph - N/A   Unknown
8:00 PM 58 °F 48 °F 61% 30.24 in 19 mi NNW 6.7 mph - -   Partly Cloudy
8:25 PM 57.2 °F 48.2 °F 72% 30.21 in 6.2 mi North 8.1 mph - N/A   Unknown
8:55 PM 57.2 °F 48.2 °F 72% 30.21 in 6.2 mi North 8.1 mph - N/A   Unknown
9:00 PM 56 °F 49 °F 70% 30.24 in 22 mi NNW 8.9 mph - -  
9:01 PM 55.4 °F 48.2 °F 77% 30.24 in 6.2 mi North 9.2 mph - N/A   Unknown
9:25 PM 55.4 °F 48.2 °F 77% 30.24 in 6.2 mi North 6.9 mph - N/A   Partly Cloudy
9:55 PM 53.6 °F 50.0 °F 88% 30.24 in 6.2 mi North 6.9 mph - N/A   Unknown
10:00 PM 54 °F 50 °F 80% 30.25 in 19 mi North 6.7 mph - -  
10:25 PM 53.6 °F 50.0 °F 88% 30.24 in 6.2 mi North 6.9 mph - N/A   Unknown
10:55 PM 53.6 °F 50.0 °F 88% 30.24 in 6.2 mi North 6.9 mph - N/A   Unknown
11:00 PM 53 °F 50 °F 84% 30.25 in 14 mi North 6.7 mph - -  
11:25 PM 51.8 °F 50.0 °F 94% 30.24 in 6.2 mi North 5.8 mph - N/A   Partly Cloudy
11:55 PM 51.8 °F 50.0 °F 94% 30.24 in 6.2 mi North 4.6 mph - N/A   Unknown